DateTimeUTC,F1_A11,F1_S11,BsB_S11,BsG_S11,BsR_S11,BbsB_S11,BbsG_S11,BbsR_S11,BaB_A11,BaG_A11,BaR_A11,Tu_S11,T_S11,Uu_S11,U_S11,P_S11,T1_A11
2021-07-15T15:00:00Z,00000200,20000000,,,,,,,0000.37,0000.15,0000.21,18.6,24.9,08.5,05.8,0661.4,31.0
2021-07-15T15:01:00Z,00000200,20000000,,,,,,,-000.48,-000.26,0000.01,18.6,24.9,08.7,05.9,0661.4,31.0
2021-07-15T15:02:00Z,00000200,20000000,,,,,,,0000.26,0000.05,0000.11,18.6,24.9,08.4,05.7,0661.4,31.0
2021-07-15T15:03:00Z,00000200,60000000,,,,,,,-000.07,-000.02,0000.03,18.6,24.9,08.4,05.7,0661.4,31.0
2021-07-15T15:04:00Z,00000200,40000000,-000.04,0000.56,0000.15,-000.23,0000.23,0000.09,0000.28,0000.37,-000.02,18.7,24.7,08.5,05.8,0662.4,31.0
2021-07-15T15:05:00Z,00000200,00000000,0000.33,0000.03,-000.20,-000.06,0000.32,0000.01,-000.08,0000.04,0000.22,18.7,24.7,08.7,06.0,0662.4,31.0
2021-07-15T15:06:00Z,00000200,00000000,-000.12,-000.07,-000.13,0000.13,-000.18,-000.22,-000.03,-000.08,-000.04,18.7,24.7,08.5,05.9,0662.4,31.0
2021-07-15T15:07:00Z,00000200,00000000,0000.53,0000.45,0000.31,0000.05,0000.32,0000.06,0000.28,-000.09,-000.15,18.7,24.7,08.4,05.9,0662.4,31.0
2021-07-15T15:08:00Z,00000200,00000000,-000.08,0000.55,0000.03,0000.54,0000.15,0000.36,-000.34,-000.03,-000.15,18.7,24.7,08.6,06.0,0662.4,31.0
2021-07-15T15:09:00Z,00000200,00000000,0000.22,0000.59,0000.13,-000.04,0000.22,0000.09,0000.10,0000.18,0000.27,18.7,24.7,08.4,05.8,0662.3,31.0
2021-07-15T15:10:00Z,00000200,00000000,0000.03,0000.47,0000.21,0000.17,0000.23,0000.19,0000.21,-000.09,0000.10,18.7,24.7,08.6,06.0,0662.5,31.0
2021-07-15T15:11:00Z,00000200,00000000,-000.00,0000.37,-000.10,0000.30,-000.31,0000.05,-000.11,-000.21,-000.27,18.7,24.7,08.6,05.9,0662.4,31.0
2021-07-15T15:12:00Z,00000200,00000000,0000.45,0000.28,0000.24,-000.53,-000.05,0000.13,-000.17,0000.17,-000.09,18.7,24.7,08.6,05.9,0662.3,31.0
2021-07-15T15:13:00Z,00000200,00000000,0000.69,0000.50,0000.11,-000.24,0000.17,0000.34,0000.47,0000.08,0000.49,18.7,24.7,08.6,06.0,0662.3,31.0
2021-07-15T15:14:00Z,00000200,00000000,0000.27,0000.19,0000.15,0000.72,-000.11,0000.13,-000.30,-000.01,-000.13,18.7,24.7,08.6,06.0,0662.3,31.0
2021-07-15T15:15:00Z,00000200,00000000,-000.12,0000.56,0000.39,0000.60,0000.01,-000.07,0000.15,0000.40,0000.04,18.6,24.7,08.7,06.0,0662.4,31.0
2021-07-15T15:16:00Z,00000200,00000000,0000.60,0000.07,0000.33,0000.44,0000.14,0000.20,0000.26,0000.05,0000.18,18.7,24.6,08.8,06.1,0662.4,31.0
2021-07-15T15:17:00Z,00000200,00000000,-000.07,-000.02,0000.20,0000.29,-000.01,0000.17,0000.05,0000.12,-000.00,18.6,24.7,08.8,06.1,0662.4,31.0
2021-07-15T15:18:00Z,00000200,00000000,-000.20,0000.57,0000.31,-000.14,-000.12,0000.27,-000.16,-000.21,-000.28,18.6,24.7,08.8,06.1,0662.4,31.0
2021-07-15T15:19:00Z,00000200,00000000,0000.36,0000.60,0000.34,-000.37,0000.12,0000.18,0000.04,0000.11,0000.58,18.7,24.7,08.8,06.1,0662.2,31.0
2021-07-15T15:20:00Z,00000200,00000000,0000.25,0000.68,-000.15,0000.07,-000.00,-000.16,0000.21,0000.05,-000.26,18.7,24.7,08.7,06.1,0662.2,31.0
2021-07-15T15:21:00Z,00000200,00000000,0000.52,0000.77,0000.67,0000.64,-000.03,0000.03,0000.32,0000.20,0000.39,18.7,24.6,08.8,06.1,0662.4,31.0
2021-07-15T15:22:00Z,00000200,00000000,0001.13,0000.42,0000.38,0000.07,0000.04,0000.18,-000.22,0000.38,-000.24,18.7,24.7,08.8,06.1,0662.2,31.0
2021-07-15T15:23:00Z,00000200,00000000,0000.44,0000.46,0000.22,0000.81,0000.28,0000.11,0000.62,0000.14,0000.12,18.7,24.7,08.8,06.1,0662.6,31.1
2021-07-15T15:24:00Z,00000200,00000000,0000.02,0000.57,0000.53,-000.43,0000.26,0000.05,-000.16,-000.01,0000.13,18.7,24.7,09.0,06.3,0662.5,31.0
2021-07-15T15:25:00Z,00000200,00000000,0000.03,0000.25,0000.07,-000.37,0000.09,0000.35,0000.18,-000.12,0000.06,18.7,24.7,08.8,06.1,0662.5,31.0
2021-07-15T15:26:00Z,00000200,00000000,0001.10,0000.63,0000.34,0000.05,0000.25,0000.17,-000.34,0000.00,0000.19,18.7,24.7,08.8,06.1,0662.4,31.0
2021-07-15T15:27:00Z,00000200,00000000,0000.05,0000.44,0000.09,0000.03,0000.16,-000.05,0000.10,0000.26,-000.55,18.7,24.7,08.9,06.2,0662.5,31.0
2021-07-15T15:28:00Z,00000200,00000000,0000.39,-000.00,0000.24,-000.03,0000.16,0000.13,0000.19,-000.15,0000.42,18.7,24.7,08.8,06.1,0662.4,31.0
2021-07-15T15:29:00Z,00000200,00000000,0000.25,0000.78,0000.21,0000.51,-000.05,-000.42,0000.16,0000.33,0000.23,18.7,24.7,09.0,06.2,0662.5,31.0
2021-07-15T15:30:00Z,00000200,00000000,0000.14,0000.80,0000.19,0000.16,-000.11,-000.11,-000.13,-000.21,-000.08,18.7,24.7,09.0,06.2,0662.5,31.0
2021-07-15T15:31:00Z,00000200,00000000,0001.03,0000.30,0000.38,0000.14,0000.10,0000.55,0000.43,0000.11,0000.03,18.7,24.6,08.9,06.2,0662.3,31.0
2021-07-15T15:32:00Z,00000200,00000000,0001.00,0000.47,0000.47,0000.80,0000.11,0000.06,-000.10,-000.07,-000.10,18.7,24.7,09.0,06.2,0662.2,31.0
2021-07-15T15:33:00Z,00000200,00000000,0000.56,0000.57,0000.26,0000.45,0000.17,-000.05,0000.02,0000.23,0000.18,18.7,24.7,08.9,06.2,0662.1,31.0
2021-07-15T15:34:00Z,00000200,00000000,0000.35,0000.33,0000.57,0000.01,0000.01,0000.53,0000.26,0000.36,0000.16,18.7,24.7,09.1,06.3,0662.4,31.0
2021-07-15T15:35:00Z,00000200,00000000,0000.47,0000.53,0000.18,0000.29,0000.30,-000.01,0000.43,0000.29,0000.36,18.7,24.6,09.2,06.4,0662.6,31.0
2021-07-15T15:36:00Z,00000200,00000000,0000.65,0000.41,0000.46,-000.41,0000.24,0000.26,-000.15,0000.02,-000.03,18.7,24.6,09.3,06.5,0662.5,31.0
2021-07-15T15:37:00Z,00000200,00000000,0000.64,0000.21,0000.25,0000.36,0000.16,0000.09,0000.19,0000.02,0000.08,18.7,24.6,09.3,06.4,0662.4,31.0
2021-07-15T15:38:00Z,00000200,00000000,-000.01,0000.60,0000.46,-000.06,0000.15,0000.24,-000.08,-000.07,-000.06,18.7,24.6,08.9,06.2,0662.1,31.0
2021-07-15T15:39:00Z,00000200,00000000,0000.68,0000.71,0000.74,0000.71,0000.14,0000.43,0000.31,-000.04,0000.44,18.7,24.6,08.9,06.2,0662.3,31.0
2021-07-15T15:40:00Z,00000200,00000000,0001.05,0000.99,0000.03,0000.13,0000.17,-000.01,0000.11,0000.47,0000.22,18.7,24.6,09.1,06.3,0662.3,31.0
2021-07-15T15:41:00Z,00000200,00000000,0000.14,0000.24,0000.41,-000.19,0000.04,0000.07,0000.03,0000.03,-000.30,18.7,24.6,09.1,06.3,0662.3,31.0
2021-07-15T15:42:00Z,00000200,00000000,0000.78,0000.71,0000.75,-000.39,0000.20,0000.44,0000.19,0000.15,0000.10,18.7,24.6,09.0,06.2,0662.1,31.0
2021-07-15T15:43:00Z,00000200,00000000,0000.18,0000.66,0000.17,0000.51,0000.28,-000.15,0000.05,0000.10,0000.13,18.6,24.6,09.0,06.2,0662.3,31.0
2021-07-15T15:44:00Z,00000200,00000000,0000.60,0000.85,0000.41,0000.19,0000.28,0000.10,0000.27,0000.19,0000.31,18.6,24.6,09.0,06.2,0662.3,31.0
2021-07-15T15:45:00Z,00000200,00000000,0000.08,0000.49,0000.46,0000.15,0000.16,0000.61,0000.30,-000.11,-000.05,18.6,24.6,08.9,06.2,0662.2,31.0
2021-07-15T15:46:00Z,00000200,00000000,0002.04,0000.65,0000.32,0000.26,-000.06,0000.20,0000.03,0000.37,0000.32,18.6,24.6,09.0,06.2,0662.2,31.0
2021-07-15T15:47:00Z,00000200,00000000,0001.22,0000.70,0000.61,0000.51,0000.27,0000.26,0000.35,-000.15,0000.14,18.6,24.6,09.0,06.2,0662.1,31.0
2021-07-15T15:48:00Z,00000200,00000000,0000.82,0000.69,0000.33,0000.61,0000.21,0000.25,0000.05,0000.19,-000.21,18.6,24.6,09.0,06.2,0662.3,31.0
2021-07-15T15:49:00Z,00000200,00000000,0000.84,0000.66,0000.45,0000.81,0000.28,0000.41,0000.24,0000.62,0000.40,18.6,24.6,09.2,06.4,0662.4,31.0
2021-07-15T15:50:00Z,00000200,00000000,0001.18,0000.64,0000.34,0000.16,0000.46,-000.04,0000.09,-000.04,0000.24,18.6,24.6,09.1,06.3,0662.3,31.0
2021-07-15T15:51:00Z,00000200,00000000,0001.24,0000.66,0000.33,-000.20,0000.14,0000.20,0000.70,0000.36,0000.23,18.6,24.6,09.1,06.3,0662.4,31.0
2021-07-15T15:52:00Z,00000200,00000000,0001.11,0000.51,0000.44,0000.45,0000.02,-000.03,-000.08,0000.29,-000.26,18.7,24.6,09.2,06.4,0662.3,31.0
2021-07-15T15:53:00Z,00000200,00000000,0000.62,0000.67,0000.27,0000.06,-000.00,0000.09,0000.30,0000.07,0000.55,18.8,24.7,08.9,06.2,0662.1,31.0
2021-07-15T15:54:00Z,00000200,00000000,0000.90,0000.56,0000.53,0000.06,-000.13,0000.22,0000.00,0000.24,-000.17,18.8,24.7,08.9,06.2,0662.4,31.0
2021-07-15T15:55:00Z,00000200,00000000,0000.18,0000.83,0000.53,-000.13,0000.03,0000.32,0000.00,-000.05,0000.02,18.8,24.7,09.1,06.4,0662.4,31.0
2021-07-15T15:56:00Z,00000200,00000000,0001.10,0000.68,0000.46,0000.29,0000.11,-000.18,0000.07,0000.29,0000.18,18.8,24.7,09.1,06.3,0662.3,31.1
2021-07-15T15:57:00Z,00000200,40000000,,,,,,,0000.22,-000.26,-000.17,18.8,24.8,09.4,06.5,0662.5,31.0
2021-07-15T15:58:00Z,00000200,60000000,,,,,,,-000.01,0000.13,0000.11,18.7,24.8,09.0,06.2,0661.6,31.1
2021-07-15T15:59:00Z,00000200,20000000,,,,,,,0000.06,-000.35,0000.25,18.7,24.9,08.9,06.1,0661.4,31.0
